(20980) = 1981 ED16 = 1998 FH119

Discovered at Siding Spring on 1981-03-01 by S. J. Bus.

Orbit

Orbit type: Main Belt

Note: WebGL enabled browser required.

epoch2024-03-31.0
epoch JD2460400.5
perihelion date2025-05-22.64441
perihelion JD2460818.14441
argument of perihelion (°)291.59720
ascending node (°)267.82725
inclination (°)3.58844
eccentricity0.1434945
perihelion distance (AU)1.9335897
Tisserand w.r.t. Jupiter3.6
ΔV w.r.t. Earth (km/sec)8.7
semimajor axis (AU)2.2575334
mean anomaly (°)238.64456
mean daily motion (°/day)0.29057120
aphelion distance (AU)2.581
period (years)3.39
P-vector [x]-0.94125915
P-vector [y]-0.28203589
P-vector [z]-0.18570667
Q-vector [x]0.33184248
Q-vector [y]-0.87439854
Q-vector [z]-0.35398837
absolute magnitude15.75
phase slope0.15
uncertainty0
referenceMPEC 2024-C60
observations used1375
oppositions20
arc length (days)15700
first opposition used1981
last opposition used2024
residual rms (arc-secs)0.73
perturbers coarse indicatorM-v
perturbers precise indicator003Ek
first observation date used1981-02-09.0
last observation date used2024-02-05.0
computer nameMPCLINUX
JD of orbit computation2456760.815234
perihelion JD uncertainty (days)5.7677E-05
argument of perihelion uncertainty (°)6.6043E-05
ascending node uncertainty (°)6.4506E-05
inclination uncertainty (°)3.8473E-06
eccentricity uncertainty 4.1728E-08
perihelion distance uncertainty (AU)9.4348E-08
Minimum Orbit Intersection Distances (in AU)
for orbit epoch: 2460200.5, reference: E2024-C60
Mercury1.50218
Venus1.2178
Earth0.93263
Mars0.33159
Jupiter2.38724
Saturn6.62895
Uranus16.448
Neptune27.269

Observations

1396 total observations over interval: 1981 02 09.60577 – 2024 02 05.103536
These data are available for download (format description).

Date (UT) J2000 RA J2000 Dec Magn Location Ref
1981 02 09.60577 12 34 01.32 -10 02 09.0   413 – Siding Spring Observatory MPC 9635
1981 02 12.60906 12 34 23.88 -10 14 17.5   413 – Siding Spring Observatory MPC 9635
1981 03 01.59302 12 30 50.47 -10 42 41.7 19.0 V 413 – Siding Spring Observatory MPC 7553
1981 03 06.66426 12 27 58.47 -10 36 43.9   413 – Siding Spring Observatory MPC 7553
1981 03 06.70593 12 27 56.88 -10 36 40.2   413 – Siding Spring Observatory MPC 7553
1981 03 08.68165 12 26 38.00 -10 32 28.2   413 – Siding Spring Observatory MPC 7553
1981 03 08.72332 12 26 36.35 -10 32 22.1   413 – Siding Spring Observatory MPC 7553
1981 04 09.50909 11 59 58.94 -07 42 29.4   413 – Siding Spring Observatory MPC 7553
1981 04 09.54382 11 59 57.45 -07 42 16.9   413 – Siding Spring Observatory MPC 7553
1981 05 01.49549 11 51 14.98 -05 41 25.2   413 – Siding Spring Observatory MPC 10251
1998 03 22.327755 13 16 30.94 -15 32 15.0 18.5 R 699 – Lowell Observatory-LONEOS MPS 1036
1998 03 22.337685 13 16 30.56 -15 32 12.1 17.9 R 699 – Lowell Observatory-LONEOS MPS 1036
1998 03 22.347616 13 16 29.97 -15 32 10.7 17.9 R 699 – Lowell Observatory-LONEOS MPS 1036
1998 03 25.33255 13 14 22.01 -15 22 36.4 17.9   704 – Lincoln Laboratory ETS, New Mexico MPS 1661
1998 03 25.35261 13 14 21.05 -15 22 32.1 17.9   704 – Lincoln Laboratory ETS, New Mexico MPS 1661
1998 03 25.37288 13 14 20.11 -15 22 28.2 18.3   704 – Lincoln Laboratory ETS, New Mexico MPS 1661
1998 03 25.39315 13 14 19.10 -15 22 23.3 17.9   704 – Lincoln Laboratory ETS, New Mexico MPS 1661
1998 03 25.41329 13 14 18.14 -15 22 18.8 17.9   704 – Lincoln Laboratory ETS, New Mexico MPS 1662
1998 03 28.32852 13 12 01.512 -15 10 37.89 16.52 J I02 – Cerro Tololo Observatory, La Serena--2MASS MPS 80842
1998 03 31.38010 13 09 29.47 -14 56 38.7 17.3   704 – Lincoln Laboratory ETS, New Mexico MPS 1036
1998 03 31.40098 13 09 28.44 -14 56 31.0 17.3   704 – Lincoln Laboratory ETS, New Mexico MPS 1036
1998 03 31.42183 13 09 27.27 -14 56 26.6 17.5   704 – Lincoln Laboratory ETS, New Mexico MPS 1036
1998 03 31.44275 13 09 26.13 -14 56 19.9 18.2   704 – Lincoln Laboratory ETS, New Mexico MPS 1036
1998 04 01.24587 13 08 45.47 -14 52 14.0 18.3   704 – Lincoln Laboratory ETS, New Mexico MPS 1036
1998 04 01.26591 13 08 44.34 -14 52 08.5 17.7   704 – Lincoln Laboratory ETS, New Mexico MPS 1036
1998 04 01.28606 13 08 43.27 -14 52 02.1 17.8   704 – Lincoln Laboratory ETS, New Mexico MPS 1036
1998 04 01.30615 13 08 42.11 -14 51 56.1 17.8   704 – Lincoln Laboratory ETS, New Mexico MPS 1036
1998 04 01.32632 13 08 41.02 -14 51 50.2 17.7   704 – Lincoln Laboratory ETS, New Mexico MPS 1036
1998 04 18.26248 12 53 56.44 -13 03 35.4 17.9   704 – Lincoln Laboratory ETS, New Mexico MPS 1187
1998 04 18.28335 12 53 55.37 -13 03 25.6 18.4   704 – Lincoln Laboratory ETS, New Mexico MPS 1187
1998 04 18.30413 12 53 54.31 -13 03 17.8 18.8   704 – Lincoln Laboratory ETS, New Mexico MPS 1187
1998 04 18.32483 12 53 53.20 -13 03 09.2 18.7   704 – Lincoln Laboratory ETS, New Mexico MPS 1187
1998 04 18.34553 12 53 52.18 -13 03 00.0 18.8   704 – Lincoln Laboratory ETS, New Mexico MPS 1187
1998 04 20.24247 12 52 23.40 -12 49 31.5 17.5   704 – Lincoln Laboratory ETS, New Mexico MPS 1187
1998 04 20.26258 12 52 22.34 -12 49 21.4 18.4   704 – Lincoln Laboratory ETS, New Mexico MPS 1187
1998 04 20.28269 12 52 21.28 -12 49 13.0 18.4   704 – Lincoln Laboratory ETS, New Mexico MPS 1187
1998 04 20.30278 12 52 20.43 -12 49 04.5 18.0   704 – Lincoln Laboratory ETS, New Mexico MPS 1187
1998 04 20.32283 12 52 19.36 -12 48 56.5 18.0   704 – Lincoln Laboratory ETS, New Mexico MPS 1187
1998 04 30.28374 12 45 53.86 -11 40 28.8 17.4 R 699 – Lowell Observatory-LONEOS MPS 1187
1998 04 30.29862 12 45 53.35 -11 40 22.8   699 – Lowell Observatory-LONEOS MPS 1187
1998 04 30.31352 12 45 52.88 -11 40 17.3   699 – Lowell Observatory-LONEOS MPS 1187
1999 10 09.18827 23 36 30.77 +03 40 32.6 20.0   704 – Lincoln Laboratory ETS, New Mexico MPS 6576
1999 10 09.20372 23 36 30.02 +03 40 27.1 19.9   704 – Lincoln Laboratory ETS, New Mexico MPS 6576
1999 10 09.21918 23 36 29.21 +03 40 20.6 19.6   704 – Lincoln Laboratory ETS, New Mexico MPS 6576
1999 10 09.23461 23 36 28.50 +03 40 13.9 19.3   704 – Lincoln Laboratory ETS, New Mexico MPS 6576
2000 12 21.38078 08 24 32.93 +17 02 25.1 18.3   704 – Lincoln Laboratory ETS, New Mexico MPS 23438
2000 12 21.39602 08 24 32.42 +17 02 23.7 19.0   704 – Lincoln Laboratory ETS, New Mexico MPS 23438
2000 12 21.41129 08 24 31.90 +17 02 23.1 19.2   704 – Lincoln Laboratory ETS, New Mexico MPS 23438
2000 12 21.42654 08 24 31.32 +17 02 21.7 18.7   704 – Lincoln Laboratory ETS, New Mexico MPS 23438
2000 12 21.44182 08 24 30.76 +17 02 21.0 18.6   704 – Lincoln Laboratory ETS, New Mexico MPS 23438
2000 12 26.42546 08 21 24.11 +17 00 08.7 19.3 V 691 – Steward Observatory, Kitt Peak-Spacewatch MPS 23438
2000 12 26.44766 08 21 23.12 +17 00 08.2 19.3 V 691 – Steward Observatory, Kitt Peak-Spacewatch MPS 23438
2000 12 26.49052 08 21 21.20 +17 00 07.5 19.3 V 691 – Steward Observatory, Kitt Peak-Spacewatch MPS 23438
2000 12 30.36720 08 18 22.68 +17 00 06.9 18.6   704 – Lincoln Laboratory ETS, New Mexico MPS 23438
2000 12 30.38275 08 18 21.84 +17 00 07.3 18.7   704 – Lincoln Laboratory ETS, New Mexico MPS 23438
2000 12 30.39905 08 18 21.00 +17 00 07.2 18.8   704 – Lincoln Laboratory ETS, New Mexico MPS 23438
2000 12 30.41405 08 18 20.19 +17 00 07.0 19.0   704 – Lincoln Laboratory ETS, New Mexico MPS 23438
2000 12 30.42901 08 18 19.43 +17 00 07.8 18.4   704 – Lincoln Laboratory ETS, New Mexico MPS 23438
2001 01 02.30758 08 15 49.52 +17 01 01.3 18.9   704 – Lincoln Laboratory ETS, New Mexico MPS 23438
2001 01 02.32312 08 15 48.66 +17 01 01.0 19.1   704 – Lincoln Laboratory ETS, New Mexico MPS 23438
2001 01 02.33867 08 15 47.82 +17 01 01.5 18.8   704 – Lincoln Laboratory ETS, New Mexico MPS 23438
2001 01 02.35388 08 15 46.95 +17 01 02.7 18.8   704 – Lincoln Laboratory ETS, New Mexico MPS 23438
2001 01 03.27870 08 14 56.07 +17 01 27.6 18.0 R 699 – Lowell Observatory-LONEOS MPS 23438
2001 01 03.30208 08 14 54.66 +17 01 29.4   699 – Lowell Observatory-LONEOS MPS 23438
2001 01 03.30938 08 14 54.20 +17 01 28.9 18.6   704 – Lincoln Laboratory ETS, New Mexico MPS 23438
2001 01 03.32509 08 14 53.21 +17 01 29.7 19.0   704 – Lincoln Laboratory ETS, New Mexico MPS 23438
2001 01 03.32553 08 14 53.36 +17 01 29.7   699 – Lowell Observatory-LONEOS MPS 23438
2001 01 03.34033 08 14 52.38 +17 01 29.9 18.3   704 – Lincoln Laboratory ETS, New Mexico MPS 23438
2001 01 03.34896 08 14 51.92 +17 01 30.5   699 – Lowell Observatory-LONEOS MPS 23438
2001 01 03.35559 08 14 51.50 +17 01 30.9 18.6   704 – Lincoln Laboratory ETS, New Mexico MPS 23438
2001 01 03.37085 08 14 50.57 +17 01 31.2 18.8   704 – Lincoln Laboratory ETS, New Mexico MPS 23438
2001 01 16.26331 08 01 09.52 +17 13 26.4 18.3 V 691 – Steward Observatory, Kitt Peak-Spacewatch MPS 24719
2001 01 16.28530 08 01 07.96 +17 13 27.9 18.2 V 691 – Steward Observatory, Kitt Peak-Spacewatch MPS 24719
2001 01 16.30721 08 01 06.39 +17 13 29.6 18.3 V 691 – Steward Observatory, Kitt Peak-Spacewatch MPS 24719
2001 01 19.27615 07 57 40.30 +17 17 17.9 17.6 R 699 – Lowell Observatory-LONEOS MPS 24719
2001 01 19.29807 07 57 38.71 +17 17 19.8   699 – Lowell Observatory-LONEOS MPS 24719
2001 01 19.32005 07 57 37.11 +17 17 21.0   699 – Lowell Observatory-LONEOS MPS 24719
2001 01 19.34205 07 57 35.53 +17 17 22.8   699 – Lowell Observatory-LONEOS MPS 24719
2001 01 20.30380 07 56 28.52 +17 18 39.4 18.1   704 – Lincoln Laboratory ETS, New Mexico MPS 24719
2001 01 20.31871 07 56 27.42 +17 18 40.5 18.8   704 – Lincoln Laboratory ETS, New Mexico MPS 24719
2001 01 20.33363 07 56 26.33 +17 18 42.7 18.8   704 – Lincoln Laboratory ETS, New Mexico MPS 24719
2001 01 20.34855 07 56 25.29 +17 18 43.7 18.9   704 – Lincoln Laboratory ETS, New Mexico MPS 24719
2001 01 20.36347 07 56 24.13 +17 18 45.1 19.1   704 – Lincoln Laboratory ETS, New Mexico MPS 24719
2001 01 21.24016 07 55 23.39 +17 19 55.0 17.8   704 – Lincoln Laboratory ETS, New Mexico MPS 24719
2001 01 21.25534 07 55 22.29 +17 19 56.2 18.3   704 – Lincoln Laboratory ETS, New Mexico MPS 24719
